Weather History for Las Americas, Dominican Republic

Change the Weather History Date:

Monday, January 21, 2013

  Actual Average Record
Temperature  
Mean Temperature 77 °F -  
Max Temperature 87 °F 85 °F 87 °F (1998)
Min Temperature 67 °F 66 °F 60 °F (2000)
Cooling Degree Days 12    
Growing Degree Days 27 (Base 50)    
Moisture  
Dew Point 70 °F    
Average Humidity 82    
Maximum Humidity 94    
Minimum Humidity 60    
Precipitation  
Precipitation 0.00 in 0.05 in - ()
Sea Level Pressure  
Sea Level Pressure 30.01 in    
Wind  
Wind Speed 5 mph ()    
Max Wind Speed 9 mph    
Max Gust Speed -    
Visibility 6.4 miles    
Events Rain    
Averages and records for this station are not official NWS values.
T = Trace of Precipitation, MM = Missing Value Source: Averaged Metar Reports

Daily Weather History Graph

Daily Weather History Graph

Search for Another Location

Airport:

Trip Planner

Search our weather history database for the weather conditions in past years. The results will help you decide how hot, cold, wet, or windy it might be!

Date:

Astronomy

Jan. 21, 2013 Rise Set
Actual Time 7:13 AM AST 6:26 PM AST
Civil Twilight 6:50 AM AST 6:49 PM AST
Nautical Twilight 6:24 AM AST 7:16 PM AST
Astronomical Twilight 5:57 AM AST 7:42 PM AST
Moon 2:06 PM AST (1/21) 2:38 AM AST (1/21)
Length of Visible Light 11h 58m
Length of Day
11h 12m
Waxing Gibbous, 74% of the Moon is Illuminated
Jan 21
Waxing Gibbous
Jan 27
Full
Feb 3
Last Quarter
Feb 10
New
Feb 17
First Quarter

Hourly Weather History & Observations

Time (AST) Temp. Heat Index Dew Point Humidity Pressure Visibility Wind Dir Wind Speed Gust Speed Precip Events Conditions
12:00 AM 71.6 °F - 68.0 °F 88% 30.04 in 6.2 mi ENE 4.6 mph - N/A   Mostly Cloudy
1:00 AM 71.6 °F - 68.0 °F 88% 30.04 in 6.2 mi NE 4.6 mph - N/A   Mostly Cloudy
2:00 AM 70 °F - 67 °F 88% 30.04 in 10 mi NE 4.5 mph - -   Partly Cloudy
2:00 AM 69.8 °F - 68.0 °F 94% 30.04 in 6.2 mi NE 4.6 mph - N/A   Mostly Cloudy
4:00 AM 69.8 °F - 66.2 °F 88% 29.98 in 6.2 mi NE 4.6 mph - N/A   Scattered Clouds
5:00 AM 69.8 °F - 66.2 °F 88% 29.98 in 6.2 mi NE 4.6 mph - N/A   Scattered Clouds
6:00 AM 68.0 °F - 66.2 °F 94% 29.98 in 6.2 mi NE 4.6 mph - N/A   Scattered Clouds
7:00 AM 68.0 °F - 66.2 °F 94% 29.98 in 6.2 mi NE 4.6 mph - N/A   Partly Cloudy
8:00 AM 69 °F - 66 °F 89% 30.02 in 9 mi 4.5 mph - -   Haze
8:00 AM 68.0 °F - 66.2 °F 94% 30.01 in 6.2 mi Variable 3.5 mph - N/A   Partly Cloudy
9:00 AM 71.6 °F - 66.2 °F 83% 30.04 in 6.2 mi NE 4.6 mph - N/A   Partly Cloudy
10:00 AM 75.2 °F - 71.6 °F 89% 30.04 in 6.2 mi NE 6.9 mph - N/A   Partly Cloudy
11:00 AM 80.6 °F 85.4 °F 73.4 °F 79% 30.04 in 6.2 mi East 6.9 mph - N/A   Scattered Clouds
12:00 PM 82.4 °F 88.2 °F 73.4 °F 74% 30.04 in 6.2 mi SE 9.2 mph - N/A   Scattered Clouds
1:00 PM 84.2 °F 90.9 °F 73.4 °F 70% 30.01 in 6.2 mi SE 9.2 mph - N/A   Partly Cloudy
2:00 PM 86 °F - 75 °F 63% 29.98 in 9 mi SSE 8.9 mph - -   Haze
2:00 PM 86.0 °F 95.1 °F 75.2 °F 70% 29.98 in 6.2 mi SSE 9.2 mph - N/A   Scattered Clouds
3:00 PM 84.2 °F 89.6 °F 71.6 °F 66% 29.95 in 6.2 mi SSE 8.1 mph - N/A   Scattered Clouds
4:00 PM 82.4 °F 87.2 °F 71.6 °F 70% 29.95 in 6.2 mi SSE 6.9 mph - N/A   Scattered Clouds
5:00 PM 84 °F - 72 °F 60% 29.96 in 9 mi South 6.7 mph - -   Haze
5:00 PM 84.2 °F 89.6 °F 71.6 °F 66% 29.95 in 5.0 mi South 6.9 mph - N/A Rain Rain
6:00 PM 80.6 °F 84.6 °F 71.6 °F 74% 30.01 in 4.3 mi Variable 3.5 mph - N/A Rain Rain
7:00 PM 77.0 °F - 71.6 °F 83% 30.01 in 4.3 mi Calm Calm - N/A Rain Light Rain
8:00 PM 73.4 °F - 69.8 °F 88% 30.04 in 5.0 mi Calm Calm - N/A Rain Light Rain
9:00 PM 71.6 °F - 68.0 °F 88% 30.04 in 6.2 mi ENE 8.1 mph - N/A   Scattered Clouds
10:00 PM 71.6 °F - 68.0 °F 88% 30.04 in 6.2 mi Variable 3.5 mph - N/A   Scattered Clouds
11:00 PM 71.6 °F - 68.0 °F 88% 30.04 in 6.2 mi East 4.6 mph - N/A   Scattered Clouds